Zurück zum Katalog

COSMOS 2433

GLONASS

AktivNavigationMEO
NORAD 32275·PAYLOAD·🇷🇺 Russia

Gestartet Oct 26, 2007 von Baikonur Cosmodrome

Loading…

Nächste Überflüge (nächste 24 Stunden)

TLE

AktuellSource: Space-Track

Epoche: Sep 14, 2026, 13:03 UTC

1 32275U 07052A   26257.54387713 -.00000055  00000-0  00000-0 0  9994
2 32275  65.5212 312.9232 0005480 225.3959 134.6326  2.13104077146962

Verfolge COSMOS 2433 in Echtzeit mit AllMySat

Download on the App Store